Regional Weather Roundup
Issued by NWS

Home | Current Version | Previous Version | Graphics & Text | Print | Product List | Glossary Off
Versions: 1 2 3 4 5 6 7 8 9 10 11 12 13 14 15 16 17 18 19 20 21 22 23 24 25 26 27 28 29 30 31 32 33 34 35 36 37 38 39 40 41 42 43 44 45 46 47 48 49 50

505
ASUS43 KDTX 281610
RWRMI
MICHIGAN HOURLY REGIONAL WEATHER ROUNDUP
NATIONAL WEATHER SERVICE DETROIT/PONTIAC MI
ISSUED BY NATIONAL WEATHER SERVICE GRAND RAPIDS MI
1200 PM EDT SUN MAY 28 2017

NOTE: "FAIR" INDICATES FEW OR NO CLOUDS BELOW 12,000 FEET WITH NO
SIGNIFICANT WEATHER AND/OR OBSTRUCTION TO VISIBILITY.

MIZ047>049-052>055-059>063-066>070-074>076-081>083-281700-
SOUTHEAST LOWER MICHIGAN

CITY           SKY/WX    TMP DP  RH WIND       PRES   REMARKS
ADRIAN         PTSUNNY   73  64  73 VRB5      29.74F
ALMA           MOSUNNY   73  54  50 S10       29.74F
ANN ARBOR      PTSUNNY   71  61  70 E6        29.75F
BAD AXE        MOSUNNY   71  56  59 S9        29.78F
DETROIT CITY   CLOUDY    69  57  65 VRB6      29.76F
DETROIT        PTSUNNY   73  60  63 NE7       29.76F
FLINT          SUNNY     72  53  51 S7        29.75F
GROSSE ILE     CLOUDY    69  58  68 S6        29.74S
HILLSDALE      CLOUDY    70  61  73 CALM      29.74S
HOWELL         MOSUNNY   72  55  54 SE7       29.75F

CITY           SKY/WX    TMP DP  RH WIND       PRES   REMARKS
JACKSON        PTSUNNY   73  62  68 VRB3      29.74F
LANSING        MOSUNNY   75  57  53 SE9       29.74F
MASON          MOSUNNY   72  61  68 SE7       29.75F
MONROE         CLOUDY    69  58  67 E6        29.74F
MT. CLEMENS    MOSUNNY   68  57  68 E6        29.76F
PONTIAC        PTSUNNY   70  53  54 CALM      29.76F
PORT HOPE        N/A     72  57  59 VRB7      29.76F
PORT HURON     CLOUDY    70  54  56 SE8       29.78F
TRI CITIES     MOSUNNY   74  57  55 S9        29.75F
YPSILANTI      CLOUDY    73  59  61 MISG      29.75F
$$
MIZ043>046-050>051-056>058-064>065-071>073-077>080-281700-
SOUTHWEST LOWER MICHIGAN

CITY           SKY/WX    TMP DP  RH WIND       PRES   REMARKS
BATTLE CREEK   MOSUNNY   73  62  68 VRB6      29.73F
BENTON HARBOR  CLOUDY    71  59  65 NW6       29.73S
BIG RAPIDS     MOSUNNY   69  53  56 SE10G17   29.73F
COLDWATER      PTSUNNY   72  65  76 CALM      29.74F
HOLLAND        PTSUNNY   75  59  57 SW7       29.73F
GRAND RAPIDS   PTSUNNY   74  56  53 SE5       29.73F
KALAMAZOO      PTSUNNY   73  60  63 S5        29.73F
MARSHALL       CLOUDY    74  63  68 S5        29.73F
MOUNT PLEASANT CLOUDY    73  55  52 S10       29.73F
MUSKEGON       CLOUDY    67  55  65 W17G26    29.75R
STURGIS        MOSUNNY   71  63  73 SE7       29.73F
$$
MIZ016>042-281700-
NORTHERN LOWER MICHIGAN

CITY           SKY/WX    TMP DP  RH WIND       PRES   REMARKS
ALPENA         CLOUDY    73  60  63 E8        29.73F
BEAVER ISLAND  CLOUDY    61  58  90 S6        29.73R
BELLAIRE       CLOUDY    67  53  60 CALM      29.71F
CADILLAC       PTSUNNY   66  58  77 SW6       29.73F
CHARLEVOIX     CLOUDY    58  53  82 NW5       29.75F
GAYLORD        PTSUNNY   70  56  61 SW12      29.73F
HOUGHTON LAKE  CLOUDY    70  55  59 S7        29.74F
MANISTEE       RAIN      55  53  93 SW5       29.76R FOG
OSCODA         MOSUNNY   73  55  53 S14G23    29.76F
PELLSTON       PTSUNNY   68  54  60 N5        29.72F
TRAVERSE CITY  TSTM      67  58  72 SW13G21   29.70F
LUDINGTON      HVY RAIN  53  53  99 SW3       29.77R
$$
MIZ007>008-015-281700-
EASTERN UPPER MICHIGAN

CITY           SKY/WX    TMP DP  RH WIND       PRES   REMARKS
KINROSS        CLOUDY    64  55  72 S7        29.75R
MACKINAC ISLAN CLOUDY    52  48  87 NE7       29.74S
NEWBERRY       CLOUDY    54  53  97 CALM      29.71F FOG
S. S. MARIE    CLOUDY    62  54  74 SE8       29.73S
$$
MIZ004>006-011>014-085-281700-
CENTRAL UPPER MICHIGAN

CITY           SKY/WX    TMP DP  RH WIND       PRES   REMARKS
MANISTIQUE     RAIN      54  51  89 CALM      29.72S
ESCANABA       LGT RAIN  56  55  97 SE6       29.73F FOG
SAWYER-GWINN   DRIZZLE   55  54  94 SW5       29.73F
$$
MIZ001>003-009>011-084-281700-
WESTERN UPPER MICHIGAN

CITY           SKY/WX    TMP DP  RH WIND       PRES   REMARKS
IRON MOUNTAIN  CLOUDY    61  52  72 VRB5      29.71F
HOUGHTON       CLOUDY    61  53  75 SE6       29.68S
COPPER HARBOR    N/A     59  56  89 CALM      29.68F
IRONWOOD       CLOUDY    65  47  52 SE9       29.65F
$$

ABBREVIATIONS USED IN REMARKS
   TC - TEMPERATURE IN CELSIUS
  WCI - WIND CHILL INDEX
   HX - HEAT INDEX
  VSB - VISIBILITY





USA.gov is the U.S. government's official web portal to all federal, state and local government web resources and services.